Location: Jackson Park
(37.2862°N, 79.9123°W)
Time: 20:39:49
(UTC+00:00)

Vanguard 2 - Pass Details

Date: 11 May 2026
Orbit: 553 x 2894 km, 32.9° (Epoch: 6 June)

Event Time Altitude Azimuth Distance (km) Brightness Sun altitude
Rises 14:03:26 0° 280° (W) 5,788 11.6 43.8°
Reaches altitude 10° 14:08:13 10° 273° (W) 4,388 11.1 44.7°
Maximum altitude 14:17:41 33° 215° (SW) 2,167 10.0 46.5°
Drops below altitude 10° 14:23:52 10° 154° (SSE) 2,824 11.0 47.7°
Sets 14:26:18 0° 143° (SE) 3,524 11.4 48.2°
